Time,TemperatureF,DewpointF,PressureIn,WindDirection,WindDirectionDegrees,WindSpeedMPH,WindSpeedGustMPH,Humidity,HourlyPrecipIn,Conditions,Clouds,dailyrainin,SoftwareType,DateUTC
2013-04-19 00:01:00,49.2,0.0,30.38,North,9,0.0,0.0,0,0.00,,BKN095,0.00,VWS V13.01,2013-04-19 07:01:00,
2013-04-19 00:06:00,49.2,0.0,30.39,North,9,0.0,0.0,0,0.00,,BKN095,0.00,VWS V13.01,2013-04-19 07:06:00,
2013-04-19 00:11:00,49.2,0.0,30.38,North,9,0.0,0.0,0,0.00,,BKN095,0.00,VWS V13.01,2013-04-19 07:11:00,
2013-04-19 00:16:00,49.2,0.0,30.38,North,9,0.0,0.0,0,0.00,,BKN095,0.00,VWS V13.01,2013-04-19 07:16:00,
2013-04-19 00:21:00,49.3,0.0,30.38,North,9,0.0,0.0,0,0.00,,BKN095,0.00,VWS V13.01,2013-04-19 07:21:00,
2013-04-19 00:26:00,49.3,0.0,30.38,North,9,0.0,0.0,0,0.00,,BKN095,0.00,VWS V13.01,2013-04-19 07:26:00,
2013-04-19 00:31:00,49.3,0.0,30.38,North,9,0.0,0.0,0,0.00,,BKN095,0.00,VWS V13.01,2013-04-19 07:31:00,
2013-04-19 00:36:00,49.2,0.0,30.38,North,9,0.0,0.0,0,0.00,,BKN095,0.00,VWS V13.01,2013-04-19 07:36:00,
2013-04-19 00:41:00,49.2,0.0,30.38,North,9,0.0,0.0,0,0.00,,OVC120,0.00,VWS V13.01,2013-04-19 07:41:00,
2013-04-19 00:46:00,49.2,0.0,30.38,North,9,0.0,0.0,0,0.00,,OVC120,0.00,VWS V13.01,2013-04-19 07:46:00,
2013-04-19 00:51:00,49.2,0.0,30.38,North,9,0.0,0.0,0,0.00,,OVC120,0.00,VWS V13.01,2013-04-19 07:51:00,
2013-04-19 00:57:00,49.3,0.0,30.38,North,9,0.0,1.0,0,0.00,,OVC120,0.00,VWS V13.01,2013-04-19 07:57:00,
2013-04-19 01:02:00,49.3,0.0,30.38,North,9,0.0,0.0,0,0.00,,OVC120,0.00,VWS V13.01,2013-04-19 08:02:00,
2013-04-19 01:07:00,49.4,0.0,30.38,North,9,0.0,0.0,0,0.00,,OVC120,0.00,VWS V13.01,2013-04-19 08:07:00,
2013-04-19 01:12:00,49.4,0.0,30.37,North,9,0.0,0.0,0,0.00,,OVC120,0.00,VWS V13.01,2013-04-19 08:12:00,
2013-04-19 01:17:00,49.4,0.0,30.37,North,9,0.0,1.0,0,0.00,,OVC120,0.00,VWS V13.01,2013-04-19 08:17:00,
2013-04-19 01:22:00,49.4,0.0,30.38,SSE,159,0.0,3.0,0,0.00,,OVC120,0.00,VWS V13.01,2013-04-19 08:22:00,
2013-04-19 01:27:00,49.5,0.0,30.37,SSE,159,0.0,3.0,0,0.00,,OVC120,0.00,VWS V13.01,2013-04-19 08:27:00,
2013-04-19 01:32:00,49.6,0.0,30.38,SSE,159,0.0,1.0,0,0.00,,OVC120,0.00,VWS V13.01,2013-04-19 08:32:00,
2013-04-19 01:37:00,49.6,0.0,30.38,SSE,159,0.0,1.0,0,0.00,,OVC120,0.00,VWS V13.01,2013-04-19 08:37:00,
2013-04-19 01:42:00,49.6,0.0,30.37,SSE,159,0.0,1.0,0,0.00,,OVC100,0.00,VWS V13.01,2013-04-19 08:42:00,
2013-04-19 01:48:00,49.6,0.0,30.37,South,171,1.0,1.0,0,0.00,,OVC100,0.00,VWS V13.01,2013-04-19 08:48:00,
2013-04-19 01:53:00,49.7,0.0,30.37,South,171,0.0,2.0,0,0.00,,OVC100,0.00,VWS V13.01,2013-04-19 08:53:00,
2013-04-19 01:58:00,49.7,0.0,30.36,South,171,0.0,2.0,0,0.00,,OVC100,0.00,VWS V13.01,2013-04-19 08:58:00,
2013-04-19 02:03:00,49.7,0.0,30.36,South,171,0.0,0.0,0,0.00,,OVC100,0.00,VWS V13.01,2013-04-19 09:03:00,
2013-04-19 02:08:00,49.7,0.0,30.36,South,171,0.0,0.0,0,0.00,,OVC100,0.00,VWS V13.01,2013-04-19 09:08:00,
2013-04-19 02:13:00,49.7,0.0,30.36,South,171,0.0,0.0,0,0.00,,OVC100,0.00,VWS V13.01,2013-04-19 09:13:00,
2013-04-19 02:18:00,49.7,0.0,30.36,South,171,0.0,0.0,0,0.00,,OVC100,0.00,VWS V13.01,2013-04-19 09:18:00,
2013-04-19 02:23:00,49.7,0.0,30.35,South,171,0.0,0.0,0,0.00,,OVC100,0.00,VWS V13.01,2013-04-19 09:23:00,
2013-04-19 02:28:00,49.7,0.0,30.35,South,171,0.0,0.0,0,0.00,,OVC100,0.00,VWS V13.01,2013-04-19 09:28:00,
2013-04-19 02:33:00,49.7,0.0,30.35,South,171,0.0,0.0,0,0.00,,OVC100,0.00,VWS V13.01,2013-04-19 09:33:00,
2013-04-19 02:38:00,49.7,0.0,30.35,South,171,0.0,0.0,0,0.00,,OVC100,0.00,VWS V13.01,2013-04-19 09:38:00,
2013-04-19 02:44:00,49.7,0.0,30.35,South,171,0.0,0.0,0,0.00,,BKN100,0.00,VWS V13.01,2013-04-19 09:44:00,
2013-04-19 02:49:00,49.7,0.0,30.35,South,171,0.0,0.0,0,0.00,,BKN100,0.00,VWS V13.01,2013-04-19 09:49:00,
2013-04-19 02:54:00,49.6,0.0,30.35,South,171,0.0,0.0,0,0.00,,BKN100,0.00,VWS V13.01,2013-04-19 09:54:00,
2013-04-19 02:59:00,49.6,0.0,30.35,South,171,0.0,0.0,0,0.00,,BKN100,0.00,VWS V13.01,2013-04-19 09:59:00,
2013-04-19 03:04:00,49.6,0.0,30.35,South,171,0.0,0.0,0,0.00,,BKN100,0.00,VWS V13.01,2013-04-19 10:04:00,
2013-04-19 03:09:00,49.5,0.0,30.35,South,171,0.0,0.0,0,0.00,,BKN100,0.00,VWS V13.01,2013-04-19 10:09:00,
2013-04-19 03:14:00,49.5,0.0,30.35,South,171,0.0,0.0,0,0.00,,BKN100,0.00,VWS V13.01,2013-04-19 10:14:00,
2013-04-19 03:19:00,49.4,0.0,30.35,South,171,0.0,0.0,0,0.00,,BKN100,0.00,VWS V13.01,2013-04-19 10:19:00,
2013-04-19 03:24:00,49.4,0.0,30.35,South,171,0.0,0.0,0,0.00,,BKN100,0.00,VWS V13.01,2013-04-19 10:24:00,
2013-04-19 03:29:00,49.4,0.0,30.33,SW,223,2.0,2.0,0,0.00,,BKN100,0.00,VWS V13.01,2013-04-19 10:29:00,
2013-04-19 03:34:00,49.4,0.0,30.33,WSW,256,0.0,3.0,0,0.00,,BKN100,0.00,VWS V13.01,2013-04-19 10:34:00,
2013-04-19 03:40:00,49.4,0.0,30.33,WSW,256,0.0,3.0,0,0.00,,OVC055,0.00,VWS V13.01,2013-04-19 10:40:00,
2013-04-19 03:45:00,49.4,0.0,30.33,WSW,246,1.0,2.0,0,0.01,,OVC055,0.01,VWS V13.01,2013-04-19 10:45:00,
2013-04-19 03:50:00,49.4,0.0,30.32,WSW,246,0.0,2.0,0,0.01,,OVC055,0.01,VWS V13.01,2013-04-19 10:50:00,
2013-04-19 03:55:00,49.5,0.0,30.32,WSW,246,2.0,2.0,0,0.01,,OVC055,0.01,VWS V13.01,2013-04-19 10:55:00,
2013-04-19 04:00:00,49.5,0.0,30.32,WSW,246,0.0,0.0,0,0.01,,OVC055,0.01,VWS V13.01,2013-04-19 11:00:00,
2013-04-19 04:05:00,49.5,0.0,30.32,WSW,246,0.0,1.0,0,0.01,,OVC055,0.01,VWS V13.01,2013-04-19 11:05:00,
2013-04-19 04:10:00,49.5,0.0,30.32,SW,214,0.0,1.0,0,0.01,,OVC055,0.01,VWS V13.01,2013-04-19 11:10:00,
2013-04-19 04:15:00,49.6,0.0,30.32,SSE,156,0.0,1.0,0,0.01,,OVC055,0.01,VWS V13.01,2013-04-19 11:15:00,
2013-04-19 04:20:00,49.6,0.0,30.32,SSE,156,0.0,1.0,0,0.01,,OVC055,0.01,VWS V13.01,2013-04-19 11:20:00,
2013-04-19 04:25:00,49.7,0.0,30.32,SSE,156,0.0,1.0,0,0.01,,OVC055,0.01,VWS V13.01,2013-04-19 11:25:00,
2013-04-19 04:30:00,49.7,0.0,30.32,SSE,156,0.0,0.0,0,0.01,,OVC055,0.01,VWS V13.01,2013-04-19 11:30:00,
2013-04-19 04:36:00,49.7,0.0,30.31,SSW,201,1.0,3.0,0,0.01,,OVC055,0.01,VWS V13.01,2013-04-19 11:36:00,
2013-04-19 04:41:00,49.8,0.0,30.31,SSW,201,0.0,3.0,0,0.01,,OVC075,0.01,VWS V13.01,2013-04-19 11:41:00,
2013-04-19 04:46:00,49.8,0.0,30.31,WSW,240,1.0,1.0,0,0.00,,OVC075,0.01,VWS V13.01,2013-04-19 11:46:00,
2013-04-19 04:51:00,49.8,0.0,30.31,East,81,0.0,2.0,0,0.00,,OVC075,0.01,VWS V13.01,2013-04-19 11:51:00,
2013-04-19 04:56:00,49.9,0.0,30.31,East,82,0.0,2.0,0,0.00,,OVC075,0.01,VWS V13.01,2013-04-19 11:56:00,
2013-04-19 05:01:00,49.9,0.0,30.31,SSE,161,1.0,4.0,0,0.00,,OVC075,0.01,VWS V13.01,2013-04-19 12:01:00,
2013-04-19 05:06:00,49.9,0.0,30.30,SE,134,0.0,4.0,0,0.00,,OVC075,0.01,VWS V13.01,2013-04-19 12:06:00,
2013-04-19 05:11:00,49.9,0.0,30.30,South,177,0.0,4.0,0,0.00,,OVC075,0.01,VWS V13.01,2013-04-19 12:11:00,
2013-04-19 05:16:00,50.0,0.0,30.29,South,173,1.0,5.0,0,0.00,,OVC075,0.01,VWS V13.01,2013-04-19 12:16:00,
2013-04-19 05:21:00,50.0,0.0,30.29,SSE,148,0.0,5.0,0,0.00,,OVC075,0.01,VWS V13.01,2013-04-19 12:21:00,
2013-04-19 05:27:00,50.1,0.0,30.29,SSE,155,0.0,5.0,0,0.00,,OVC075,0.01,VWS V13.01,2013-04-19 12:27:00,
2013-04-19 05:32:00,50.1,0.0,30.28,SSE,155,0.0,0.0,0,0.00,,OVC075,0.01,VWS V13.01,2013-04-19 12:32:00,
2013-04-19 05:37:00,50.0,0.0,30.28,SSE,155,0.0,0.0,0,0.00,,OVC075,0.01,VWS V13.01,2013-04-19 12:37:00,
2013-04-19 05:42:00,50.0,0.0,30.27,SSE,157,0.0,2.0,0,0.00,,OVC075,0.01,VWS V13.01,2013-04-19 12:42:00,
2013-04-19 05:47:00,50.0,0.0,30.28,SSE,157,0.0,0.0,0,0.00,,OVC075,0.01,VWS V13.01,2013-04-19 12:47:00,
2013-04-19 05:52:00,50.0,0.0,30.28,SSE,157,0.0,0.0,0,0.00,,OVC070,0.01,VWS V13.01,2013-04-19 12:52:00,
2013-04-19 05:57:00,50.0,0.0,30.28,SSE,157,0.0,0.0,0,0.00,,OVC070,0.01,VWS V13.01,2013-04-19 12:57:00,
2013-04-19 06:02:00,50.0,0.0,30.27,SSE,157,0.0,0.0,0,0.00,,OVC070,0.01,VWS V13.01,2013-04-19 13:02:00,
2013-04-19 06:07:00,49.9,0.0,30.27,NNE,18,1.0,3.0,0,0.01,,OVC070,0.02,VWS V13.01,2013-04-19 13:07:00,
2013-04-19 06:12:00,49.9,0.0,30.28,WSW,257,0.0,3.0,0,0.01,,OVC070,0.02,VWS V13.01,2013-04-19 13:12:00,
2013-04-19 06:17:00,49.9,0.0,30.27,WSW,257,0.0,2.0,0,0.02,,OVC070,0.03,VWS V13.01,2013-04-19 13:17:00,
2013-04-19 06:23:00,49.8,0.0,30.27,SSW,209,0.0,2.0,0,0.03,,OVC070,0.04,VWS V13.01,2013-04-19 13:23:00,
2013-04-19 06:28:00,49.8,0.0,30.27,East,88,0.0,2.0,0,0.03,,OVC070,0.04,VWS V13.01,2013-04-19 13:28:00,
2013-04-19 06:33:00,49.8,0.0,30.27,SE,128,0.0,2.0,0,0.04,,OVC070,0.05,VWS V13.01,2013-04-19 13:33:00,
2013-04-19 06:38:00,49.8,0.0,30.27,ESE,119,0.0,4.0,0,0.05,,OVC070,0.06,VWS V13.01,2013-04-19 13:38:00,
2013-04-19 06:43:00,49.8,0.0,30.27,WSW,243,0.0,4.0,0,0.05,,-RA,0.06,VWS V13.01,2013-04-19 13:43:00,
2013-04-19 06:48:00,49.7,0.0,30.27,WSW,253,0.0,1.0,0,0.06,,-RA,0.07,VWS V13.01,2013-04-19 13:48:00,
2013-04-19 06:53:00,49.7,0.0,30.27,WSW,253,0.0,1.0,0,0.06,,-RA,0.07,VWS V13.01,2013-04-19 13:53:00,
2013-04-19 06:58:00,49.7,0.0,30.26,SE,126,1.0,3.0,0,0.07,,-RA,0.08,VWS V13.01,2013-04-19 13:58:00,
2013-04-19 07:03:00,49.7,0.0,30.27,SSE,162,0.0,3.0,0,0.08,,-RA,0.09,VWS V13.01,2013-04-19 14:03:00,
2013-04-19 07:08:00,49.7,0.0,30.27,SSE,162,0.0,3.0,0,0.09,,-RA,0.10,VWS V13.01,2013-04-19 14:08:00,
2013-04-19 07:13:00,49.7,0.0,30.27,SE,145,0.0,3.0,0,0.10,,-RA,0.11,VWS V13.01,2013-04-19 14:13:00,
2013-04-19 07:19:00,49.7,0.0,30.27,SE,145,0.0,0.0,0,0.09,,-RA,0.12,VWS V13.01,2013-04-19 14:19:00,
2013-04-19 07:24:00,49.7,0.0,30.27,SE,144,0.0,0.0,0,0.10,,-RA,0.13,VWS V13.01,2013-04-19 14:24:00,
2013-04-19 07:29:00,49.7,0.0,30.27,South,173,0.0,3.0,0,0.11,,-RA,0.14,VWS V13.01,2013-04-19 14:29:00,
2013-04-19 07:34:00,49.7,0.0,30.27,South,173,0.0,1.0,0,0.10,,-RA,0.15,VWS V13.01,2013-04-19 14:34:00,
2013-04-19 07:39:00,49.7,0.0,30.27,South,173,0.0,1.0,0,0.11,,-RA,0.16,VWS V13.01,2013-04-19 14:39:00,
2013-04-19 07:44:00,49.7,0.0,30.27,South,173,0.0,0.0,0,0.11,,-RA,0.16,VWS V13.01,2013-04-19 14:44:00,
2013-04-19 07:49:00,49.7,0.0,30.27,South,186,0.0,1.0,0,0.10,,-RA,0.17,VWS V13.01,2013-04-19 14:49:00,
2013-04-19 07:54:00,49.8,0.0,30.27,South,186,0.0,1.0,0,0.10,,-RA,0.17,VWS V13.01,2013-04-19 14:54:00,
2013-04-19 07:59:00,49.9,0.0,30.27,SSE,157,0.0,1.0,0,0.10,,-RA,0.17,VWS V13.01,2013-04-19 14:59:00,
2013-04-19 08:04:00,50.0,0.0,30.27,South,185,1.0,2.0,0,0.09,,-RA,0.18,VWS V13.01,2013-04-19 15:04:00,
2013-04-19 08:09:00,50.1,0.0,30.27,East,91,1.0,3.0,0,0.10,,-RA,0.18,VWS V13.01,2013-04-19 15:09:00,
2013-04-19 08:15:00,50.1,0.0,30.27,SW,215,0.0,1.0,0,0.10,,-RA,0.18,VWS V13.01,2013-04-19 15:15:00,
2013-04-19 08:20:00,50.2,0.0,30.27,SSW,213,0.0,1.0,0,0.08,,-RA,0.19,VWS V13.01,2013-04-19 15:20:00,
2013-04-19 08:25:00,50.4,0.0,30.27,SSW,213,0.0,1.0,0,0.08,,-RA,0.19,VWS V13.01,2013-04-19 15:25:00,
2013-04-19 08:30:00,50.5,0.0,30.26,SSW,208,0.0,0.0,0,0.05,,-RA,0.19,VWS V13.01,2013-04-19 15:30:00,
2013-04-19 08:35:00,50.6,0.0,30.26,SSE,157,1.0,2.0,0,0.05,,-RA,0.19,VWS V13.01,2013-04-19 15:35:00,
2013-04-19 08:40:00,50.7,0.0,30.26,SSW,208,0.0,4.0,0,0.05,,-RA,0.19,VWS V13.01,2013-04-19 15:40:00,
2013-04-19 08:45:00,50.8,0.0,30.26,SSW,208,0.0,1.0,0,0.04,,-RA,0.20,VWS V13.01,2013-04-19 15:45:00,
2013-04-19 08:50:00,50.9,0.0,30.26,NE,52,2.0,2.0,0,0.04,,-RA,0.20,VWS V13.01,2013-04-19 15:50:00,
2013-04-19 08:55:00,51.0,0.0,30.26,ENE,57,0.0,2.0,0,0.04,,-RA,0.20,VWS V13.01,2013-04-19 15:55:00,
2013-04-19 09:00:00,51.2,0.0,30.26,South,184,2.0,2.0,0,0.04,,-RA,0.21,VWS V13.01,2013-04-19 16:00:00,
2013-04-19 09:05:00,51.3,0.0,30.26,SW,220,1.0,7.0,0,0.04,,-RA,0.21,VWS V13.01,2013-04-19 16:05:00,
2013-04-19 09:11:00,51.5,0.0,30.26,NNE,26,0.0,7.0,0,0.04,,-RA,0.21,VWS V13.01,2013-04-19 16:11:00,
2013-04-19 09:16:00,51.6,0.0,30.26,SW,215,2.0,3.0,0,0.03,,-RA,0.21,VWS V13.01,2013-04-19 16:16:00,
2013-04-19 09:21:00,51.8,0.0,30.26,West,267,0.0,3.0,0,0.03,,-RA,0.21,VWS V13.01,2013-04-19 16:21:00,
2013-04-19 09:26:00,51.9,0.0,30.26,SSE,165,0.0,4.0,0,0.03,,-RA,0.21,VWS V13.01,2013-04-19 16:26:00,
2013-04-19 09:31:00,52.0,0.0,30.26,SSW,194,5.0,5.0,0,0.03,,-RA,0.22,VWS V13.01,2013-04-19 16:31:00,
2013-04-19 09:36:00,52.1,0.0,30.26,West,264,2.0,7.0,0,0.03,,-RA,0.22,VWS V13.01,2013-04-19 16:36:00,
2013-04-19 09:41:00,52.3,0.0,30.26,South,171,5.0,7.0,0,0.03,,OVC033,0.22,VWS V13.01,2013-04-19 16:41:00,
2013-04-19 09:46:00,52.3,0.0,30.25,SE,128,2.0,3.0,0,0.02,,OVC033,0.22,VWS V13.01,2013-04-19 16:46:00,
2013-04-19 09:51:00,52.4,0.0,30.25,SW,214,0.0,3.0,0,0.02,,OVC033,0.22,VWS V13.01,2013-04-19 16:51:00,
2013-04-19 09:56:00,52.6,0.0,30.25,SSE,162,1.0,6.0,0,0.02,,OVC033,0.22,VWS V13.01,2013-04-19 16:56:00,
2013-04-19 10:01:00,52.8,0.0,30.25,SE,125,2.0,2.0,0,0.01,,OVC033,0.22,VWS V13.01,2013-04-19 17:01:00,
2013-04-19 10:07:00,52.7,0.0,30.25,SSE,167,1.0,10.0,0,0.01,,OVC033,0.22,VWS V13.01,2013-04-19 17:07:00,
2013-04-19 10:12:00,52.8,0.0,30.25,SSE,164,1.0,10.0,0,0.01,,OVC033,0.22,VWS V13.01,2013-04-19 17:12:00,
2013-04-19 10:17:00,52.8,0.0,30.25,SSE,164,7.0,7.0,0,0.01,,OVC033,0.22,VWS V13.01,2013-04-19 17:17:00,
2013-04-19 10:22:00,52.8,0.0,30.25,South,184,2.0,9.0,0,0.01,,OVC033,0.22,VWS V13.01,2013-04-19 17:22:00,
2013-04-19 10:27:00,52.9,0.0,30.26,NW,309,0.0,9.0,0,0.01,,OVC033,0.22,VWS V13.01,2013-04-19 17:27:00,
2013-04-19 10:32:00,53.0,0.0,30.25,SE,132,2.0,2.0,0,0.00,,OVC033,0.22,VWS V13.01,2013-04-19 17:32:00,
2013-04-19 10:37:00,53.1,0.0,30.26,ESE,121,0.0,2.0,0,0.01,,OVC033,0.23,VWS V13.01,2013-04-19 17:37:00,
2013-04-19 10:42:00,53.1,0.0,30.26,South,180,2.0,3.0,0,0.01,,OVC020,0.23,VWS V13.01,2013-04-19 17:42:00,
2013-04-19 10:47:00,53.2,0.0,30.26,SE,136,0.0,5.0,0,0.01,,OVC020,0.23,VWS V13.01,2013-04-19 17:47:00,
2013-04-19 10:52:00,53.2,0.0,30.26,SSW,193,1.0,5.0,0,0.01,,OVC020,0.23,VWS V13.01,2013-04-19 17:52:00,
2013-04-19 10:57:00,53.2,0.0,30.27,South,189,0.0,5.0,0,0.01,,OVC020,0.23,VWS V13.01,2013-04-19 17:57:00,
2013-04-19 11:03:00,53.4,0.0,30.27,SSE,149,0.0,2.0,0,0.01,,OVC020,0.23,VWS V13.01,2013-04-19 18:03:00,
2013-04-19 11:08:00,53.5,0.0,30.27,SW,219,1.0,2.0,0,0.01,,OVC020,0.23,VWS V13.01,2013-04-19 18:08:00,
2013-04-19 11:13:00,53.6,0.0,30.27,ESE,107,0.0,3.0,0,0.01,,OVC020,0.23,VWS V13.01,2013-04-19 18:13:00,
2013-04-19 11:18:00,53.6,0.0,30.27,ESE,107,0.0,3.0,0,0.01,,OVC020,0.23,VWS V13.01,2013-04-19 18:18:00,
2013-04-19 11:23:00,53.6,0.0,30.27,ESE,121,0.0,4.0,0,0.01,,OVC020,0.23,VWS V13.01,2013-04-19 18:23:00,
2013-04-19 11:28:00,53.7,0.0,30.28,South,169,0.0,4.0,0,0.01,,OVC020,0.23,VWS V13.01,2013-04-19 18:28:00,
2013-04-19 11:33:00,53.7,0.0,30.27,South,169,0.0,1.0,0,0.01,,OVC020,0.23,VWS V13.01,2013-04-19 18:33:00,
2013-04-19 11:38:00,53.6,0.0,30.28,SSE,159,2.0,7.0,0,0.01,,OVC020,0.23,VWS V13.01,2013-04-19 18:38:00,
2013-04-19 11:43:00,53.6,0.0,30.28,South,182,0.0,7.0,0,0.01,,,0.23,VWS V13.01,2013-04-19 18:43:00,
2013-04-19 11:48:00,53.8,0.0,30.28,SSE,147,1.0,2.0,0,0.00,,,0.23,VWS V13.01,2013-04-19 18:48:00,
2013-04-19 11:53:00,53.9,0.0,30.28,SE,145,1.0,4.0,0,0.00,,,0.23,VWS V13.01,2013-04-19 18:53:00,
2013-04-19 11:58:00,54.0,0.0,30.28,SE,144,0.0,4.0,0,0.00,,,0.23,VWS V13.01,2013-04-19 18:58:00,
2013-04-19 12:04:00,54.1,0.0,30.28,ESE,108,2.0,6.0,0,0.00,,,0.23,VWS V13.01,2013-04-19 19:04:00,
2013-04-19 12:09:00,54.1,0.0,30.29,SSW,192,0.0,6.0,0,0.00,,,0.23,VWS V13.01,2013-04-19 19:09:00,
2013-04-19 12:14:00,54.2,0.0,30.29,SSW,192,0.0,6.0,0,0.00,,,0.23,VWS V13.01,2013-04-19 19:14:00,
2013-04-19 12:19:00,54.6,0.0,30.29,SSW,192,0.0,1.0,0,0.00,,,0.23,VWS V13.01,2013-04-19 19:19:00,
2013-04-19 12:24:00,54.7,0.0,30.29,SSW,192,2.0,3.0,0,0.00,,,0.23,VWS V13.01,2013-04-19 19:24:00,
2013-04-19 12:29:00,54.7,0.0,30.29,SSE,163,1.0,1.0,0,0.00,,,0.23,VWS V13.01,2013-04-19 19:29:00,
2013-04-19 12:34:00,54.9,0.0,30.29,East,82,3.0,3.0,0,0.00,,,0.23,VWS V13.01,2013-04-19 19:34:00,
2013-04-19 12:39:00,54.9,0.0,30.29,ESE,105,0.0,4.0,0,0.00,,,0.23,VWS V13.01,2013-04-19 19:39:00,
2013-04-19 12:44:00,54.8,0.0,30.29,SSE,160,0.0,0.0,0,0.00,,,0.23,VWS V13.01,2013-04-19 19:44:00,
2013-04-19 12:49:00,55.1,0.0,30.29,SSE,160,0.0,0.0,0,0.00,,,0.23,VWS V13.01,2013-04-19 19:49:00,
2013-04-19 12:54:00,54.8,0.0,30.30,SSW,192,3.0,5.0,0,0.00,,,0.23,VWS V13.01,2013-04-19 19:54:00,
2013-04-19 12:59:00,54.5,0.0,30.30,South,172,2.0,2.0,0,0.00,,,0.23,VWS V13.01,2013-04-19 19:59:00,
2013-04-19 13:05:00,54.8,0.0,30.30,South,172,0.0,2.0,0,0.00,,,0.23,VWS V13.01,2013-04-19 20:05:00,
2013-04-19 13:10:00,54.8,0.0,30.30,SSE,155,2.0,7.0,0,0.00,,,0.23,VWS V13.01,2013-04-19 20:10:00,
2013-04-19 13:15:00,54.7,0.0,30.30,SSW,192,1.0,2.0,0,0.00,,,0.23,VWS V13.01,2013-04-19 20:15:00,
2013-04-19 13:20:00,54.7,0.0,30.30,ESE,114,6.0,6.0,0,0.00,,,0.23,VWS V13.01,2013-04-19 20:20:00,
2013-04-19 13:25:00,54.8,0.0,30.30,SSW,200,2.0,7.0,0,0.00,,,0.23,VWS V13.01,2013-04-19 20:25:00,
2013-04-19 13:30:00,54.8,0.0,30.30,SE,129,2.0,4.0,0,0.00,,,0.23,VWS V13.01,2013-04-19 20:30:00,
2013-04-19 13:35:00,54.9,0.0,30.30,SE,144,1.0,4.0,0,0.00,,,0.23,VWS V13.01,2013-04-19 20:35:00,
2013-04-19 13:40:00,55.0,0.0,30.30,SSE,163,0.0,5.0,0,0.00,,OVC045,0.23,VWS V13.01,2013-04-19 20:40:00,
2013-04-19 13:45:00,55.1,0.0,30.31,South,184,3.0,5.0,0,0.00,,OVC045,0.23,VWS V13.01,2013-04-19 20:45:00,
2013-04-19 13:50:00,55.0,0.0,30.31,South,169,3.0,6.0,0,0.00,,OVC045,0.23,VWS V13.01,2013-04-19 20:50:00,
2013-04-19 13:56:00,54.7,0.0,30.31,South,190,0.0,6.0,0,0.00,,OVC045,0.23,VWS V13.01,2013-04-19 20:56:00,
2013-04-19 14:01:00,54.7,0.0,30.31,SE,146,1.0,3.0,0,0.00,,OVC045,0.23,VWS V13.01,2013-04-19 21:01:00,
2013-04-19 14:06:00,54.8,0.0,30.30,East,80,0.0,4.0,0,0.00,,OVC045,0.23,VWS V13.01,2013-04-19 21:06:00,
2013-04-19 14:11:00,55.1,0.0,30.30,ESE,117,0.0,4.0,0,0.00,,OVC045,0.23,VWS V13.01,2013-04-19 21:11:00,
2013-04-19 14:16:00,55.3,0.0,30.31,SW,215,1.0,1.0,0,0.00,,OVC045,0.23,VWS V13.01,2013-04-19 21:16:00,
2013-04-19 14:21:00,55.5,0.0,30.30,SSW,202,0.0,3.0,0,0.00,,OVC045,0.23,VWS V13.01,2013-04-19 21:21:00,
2013-04-19 14:26:00,55.6,-31.6,30.31,SSW,210,1.0,3.0,2,0.00,,OVC045,0.23,VWS V13.01,2013-04-19 21:26:00,
2013-04-19 14:31:00,55.8,0.0,30.31,South,169,2.0,5.0,0,0.00,,OVC045,0.23,VWS V13.01,2013-04-19 21:31:00,
2013-04-19 14:36:00,55.5,0.0,30.31,South,174,3.0,6.0,0,0.00,,OVC045,0.23,VWS V13.01,2013-04-19 21:36:00,
2013-04-19 14:41:00,55.5,0.0,30.31,SSE,165,3.0,6.0,0,0.00,,BKN045,0.23,VWS V13.01,2013-04-19 21:41:00,
2013-04-19 14:46:00,55.3,0.0,30.31,SSE,150,0.0,4.0,0,0.00,,BKN045,0.23,VWS V13.01,2013-04-19 21:46:00,
2013-04-19 14:52:00,55.4,0.0,30.31,SSE,151,1.0,4.0,0,0.00,,BKN045,0.23,VWS V13.01,2013-04-19 21:52:00,
2013-04-19 14:57:00,55.3,0.0,30.31,SSW,196,1.0,5.0,0,0.00,,BKN045,0.23,VWS V13.01,2013-04-19 21:57:00,
2013-04-19 15:02:00,55.2,0.0,30.31,South,173,2.0,3.0,0,0.00,,BKN045,0.23,VWS V13.01,2013-04-19 22:02:00,
2013-04-19 15:07:00,55.2,0.0,30.31,South,173,0.0,3.0,0,0.00,,BKN045,0.23,VWS V13.01,2013-04-19 22:07:00,
2013-04-19 15:12:00,55.1,0.0,30.31,WSW,240,0.0,3.0,0,0.00,,BKN045,0.23,VWS V13.01,2013-04-19 22:12:00,
2013-04-19 15:17:00,55.0,0.0,30.31,SSW,203,0.0,2.0,0,0.00,,BKN045,0.23,VWS V13.01,2013-04-19 22:17:00,
2013-04-19 15:22:00,55.1,0.0,30.32,South,187,2.0,3.0,0,0.00,,BKN045,0.23,VWS V13.01,2013-04-19 22:22:00,
2013-04-19 15:27:00,54.8,0.0,30.32,SE,142,0.0,3.0,0,0.00,,BKN045,0.23,VWS V13.01,2013-04-19 22:27:00,
2013-04-19 15:32:00,54.8,0.0,30.32,SE,142,2.0,2.0,0,0.01,,BKN045,0.24,VWS V13.01,2013-04-19 22:32:00,
2013-04-19 15:37:00,54.7,0.0,30.32,SE,131,0.0,2.0,0,0.01,,BKN045,0.24,VWS V13.01,2013-04-19 22:37:00,
2013-04-19 15:42:00,54.6,0.0,30.32,SE,131,0.0,2.0,0,0.01,,BKN075,0.24,VWS V13.01,2013-04-19 22:42:00,
2013-04-19 15:48:00,54.7,0.0,30.32,SE,131,0.0,0.0,0,0.01,,BKN075,0.24,VWS V13.01,2013-04-19 22:48:00,
2013-04-19 15:53:00,54.6,0.0,30.32,SE,131,0.0,0.0,0,0.01,,BKN075,0.24,VWS V13.01,2013-04-19 22:53:00,
2013-04-19 15:58:00,54.0,0.0,30.32,SE,140,2.0,4.0,0,0.01,,BKN075,0.24,VWS V13.01,2013-04-19 22:58:00,
2013-04-19 16:03:00,54.1,0.0,30.32,SSE,155,0.0,2.0,0,0.01,,BKN075,0.24,VWS V13.01,2013-04-19 23:03:00,
2013-04-19 16:08:00,54.1,0.0,30.32,SSE,155,0.0,2.0,0,0.01,,BKN075,0.24,VWS V13.01,2013-04-19 23:08:00,
2013-04-19 16:13:00,54.2,0.0,30.32,ENE,74,0.0,3.0,0,0.01,,BKN075,0.24,VWS V13.01,2013-04-19 23:13:00,
2013-04-19 16:18:00,54.6,0.0,30.32,SSW,195,3.0,3.0,0,0.01,,BKN075,0.24,VWS V13.01,2013-04-19 23:18:00,
2013-04-19 16:23:00,54.3,0.0,30.32,SSW,193,1.0,7.0,0,0.01,,BKN075,0.24,VWS V13.01,2013-04-19 23:23:00,
2013-04-19 16:28:00,54.0,-44.7,30.32,ESE,115,2.0,7.0,1,0.01,,BKN075,0.24,VWS V13.01,2013-04-19 23:28:00,
2013-04-19 16:33:00,53.8,0.0,30.32,South,184,2.0,4.0,0,0.01,,BKN075,0.24,VWS V13.01,2013-04-19 23:33:00,
2013-04-19 16:38:00,53.6,0.0,30.32,SW,214,2.0,6.0,0,0.01,,BKN075,0.24,VWS V13.01,2013-04-19 23:38:00,
2013-04-19 16:44:00,53.5,0.0,30.32,South,173,1.0,6.0,0,0.01,,BKN075,0.24,VWS V13.01,2013-04-19 23:44:00,
2013-04-19 16:49:00,53.3,0.0,30.32,SSE,147,4.0,5.0,0,0.00,,BKN075,0.24,VWS V13.01,2013-04-19 23:49:00,
2013-04-19 16:54:00,53.1,0.0,30.32,SE,134,2.0,5.0,0,0.00,,BKN085,0.24,VWS V13.01,2013-04-19 23:54:00,
2013-04-19 16:59:00,53.3,0.0,30.32,SSW,194,2.0,5.0,0,0.00,,BKN085,0.24,VWS V13.01,2013-04-19 23:59:00,
2013-04-19 17:04:00,53.2,0.0,30.32,South,169,2.0,3.0,0,0.00,,BKN085,0.24,VWS V13.01,2013-04-20 00:04:00,
2013-04-19 17:09:00,53.3,0.0,30.32,South,190,1.0,3.0,0,0.00,,BKN085,0.24,VWS V13.01,2013-04-20 00:09:00,
2013-04-19 17:14:00,53.3,0.0,30.32,SSW,206,0.0,1.0,0,0.00,,BKN042,0.24,VWS V13.01,2013-04-20 00:14:00,
2013-04-19 17:19:00,53.5,0.0,30.32,SSE,156,0.0,3.0,0,0.00,,BKN042,0.24,VWS V13.01,2013-04-20 00:19:00,
2013-04-19 17:24:00,53.3,0.0,30.32,ESE,110,1.0,3.0,0,0.00,,BKN042,0.24,VWS V13.01,2013-04-20 00:24:00,
2013-04-19 17:29:00,53.5,0.0,30.32,SE,145,0.0,1.0,0,0.00,,BKN042,0.24,VWS V13.01,2013-04-20 00:29:00,
2013-04-19 17:34:00,53.6,0.0,30.32,SE,145,0.0,1.0,0,0.00,,BKN042,0.24,VWS V13.01,2013-04-20 00:34:00,
2013-04-19 17:40:00,53.8,0.0,30.32,SE,145,0.0,1.0,0,0.00,,BKN042,0.24,VWS V13.01,2013-04-20 00:40:00,
2013-04-19 17:45:00,53.6,0.0,30.32,SE,142,0.0,1.0,0,0.00,,BKN042,0.24,VWS V13.01,2013-04-20 00:45:00,
2013-04-19 17:50:00,53.5,0.0,30.32,SSE,148,2.0,5.0,0,0.00,,BKN042,0.24,VWS V13.01,2013-04-20 00:50:00,
2013-04-19 17:55:00,53.4,0.0,30.32,SSE,163,4.0,5.0,0,0.00,,BKN042,0.24,VWS V13.01,2013-04-20 00:55:00,
2013-04-19 18:00:00,53.2,0.0,30.32,South,171,2.0,4.0,0,0.00,,BKN042,0.24,VWS V13.01,2013-04-20 01:00:00,
2013-04-19 18:05:00,53.1,0.0,30.32,South,186,2.0,4.0,0,0.00,,BKN042,0.24,VWS V13.01,2013-04-20 01:05:00,
2013-04-19 18:10:00,53.1,0.0,30.32,SSW,197,2.0,4.0,0,0.00,,BKN042,0.24,VWS V13.01,2013-04-20 01:10:00,
2013-04-19 18:15:00,52.9,0.0,30.32,South,175,4.0,4.0,0,0.00,,BKN042,0.24,VWS V13.01,2013-04-20 01:15:00,
2013-04-19 18:20:00,52.7,0.0,30.32,SSE,167,2.0,4.0,0,0.00,,BKN042,0.24,VWS V13.01,2013-04-20 01:20:00,
2013-04-19 18:25:00,52.6,0.0,30.32,South,181,3.0,5.0,0,0.00,,BKN042,0.24,VWS V13.01,2013-04-20 01:25:00,
2013-04-19 18:30:00,52.6,0.0,30.32,South,190,4.0,4.0,0,0.00,,BKN042,0.24,VWS V13.01,2013-04-20 01:30:00,
2013-04-19 18:35:00,52.5,0.0,30.32,South,178,2.0,5.0,0,0.00,,BKN042,0.24,VWS V13.01,2013-04-20 01:35:00,
2013-04-19 18:41:00,52.6,0.0,30.32,South,181,3.0,5.0,0,0.00,,BKN041,0.24,VWS V13.01,2013-04-20 01:41:00,
2013-04-19 18:46:00,52.6,0.0,30.32,SSW,192,4.0,4.0,0,0.00,,BKN041,0.24,VWS V13.01,2013-04-20 01:46:00,
2013-04-19 18:51:00,52.6,0.0,30.32,SSE,167,1.0,4.0,0,0.00,,BKN041,0.24,VWS V13.01,2013-04-20 01:51:00,
2013-04-19 18:56:00,52.7,0.0,30.32,SSE,157,2.0,4.0,0,0.00,,BKN041,0.24,VWS V13.01,2013-04-20 01:56:00,
2013-04-19 19:01:00,52.6,0.0,30.32,South,169,2.0,3.0,0,0.00,,BKN041,0.24,VWS V13.01,2013-04-20 02:01:00,
2013-04-19 19:06:00,52.6,0.0,30.32,South,191,3.0,4.0,0,0.00,,BKN041,0.24,VWS V13.01,2013-04-20 02:06:00,
2013-04-19 19:11:00,52.6,0.0,30.32,South,175,2.0,4.0,0,0.00,,BKN041,0.24,VWS V13.01,2013-04-20 02:11:00,
2013-04-19 19:16:00,52.6,0.0,30.32,South,181,2.0,4.0,0,0.00,,BKN041,0.24,VWS V13.01,2013-04-20 02:16:00,
2013-04-19 19:21:00,52.4,0.0,30.32,South,176,2.0,4.0,0,0.00,,BKN041,0.24,VWS V13.01,2013-04-20 02:21:00,
2013-04-19 19:26:00,52.4,0.0,30.32,South,184,1.0,4.0,0,0.00,,BKN041,0.24,VWS V13.01,2013-04-20 02:26:00,
2013-04-19 19:31:00,52.4,0.0,30.32,South,172,3.0,4.0,0,0.00,,BKN041,0.24,VWS V13.01,2013-04-20 02:31:00,
2013-04-19 19:36:00,52.3,0.0,30.32,SSW,194,3.0,4.0,0,0.00,,BKN041,0.24,VWS V13.01,2013-04-20 02:36:00,
2013-04-19 19:41:00,52.2,0.0,30.32,SSE,164,2.0,5.0,0,0.00,,SCT039,0.24,VWS V13.01,2013-04-20 02:41:00,
2013-04-19 19:47:00,52.2,0.0,30.32,SW,223,1.0,3.0,0,0.00,,SCT039,0.24,VWS V13.01,2013-04-20 02:47:00,
2013-04-19 19:52:00,52.2,0.0,30.32,SSE,164,1.0,3.0,0,0.00,,SCT039,0.24,VWS V13.01,2013-04-20 02:52:00,
2013-04-19 19:57:00,52.0,0.0,30.32,South,175,0.0,5.0,0,0.00,,SCT039,0.24,VWS V13.01,2013-04-20 02:57:00,
2013-04-19 20:02:00,52.0,0.0,30.32,SSE,168,0.0,2.0,0,0.00,,SCT039,0.24,VWS V13.01,2013-04-20 03:02:00,
2013-04-19 20:07:00,52.0,0.0,30.33,South,173,0.0,2.0,0,0.00,,SCT039,0.24,VWS V13.01,2013-04-20 03:07:00,
2013-04-19 20:13:00,51.9,0.0,30.32,South,173,2.0,2.0,0,0.00,,SCT039,0.24,VWS V13.01,2013-04-20 03:13:00,
2013-04-19 20:18:00,51.8,0.0,30.32,South,173,0.0,3.0,0,0.00,,SCT039,0.24,VWS V13.01,2013-04-20 03:18:00,
2013-04-19 20:23:00,51.7,0.0,30.32,South,173,0.0,3.0,0,0.00,,SCT039,0.24,VWS V13.01,2013-04-20 03:23:00,
2013-04-19 20:28:00,51.7,0.0,30.32,South,173,0.0,3.0,0,0.00,,SCT039,0.24,VWS V13.01,2013-04-20 03:28:00,
2013-04-19 20:33:00,51.7,0.0,30.32,South,173,0.0,0.0,0,0.00,,SCT039,0.24,VWS V13.01,2013-04-20 03:33:00,
2013-04-19 20:38:00,51.6,0.0,30.32,South,173,0.0,0.0,0,0.00,,SCT039,0.24,VWS V13.01,2013-04-20 03:38:00,
2013-04-19 20:43:00,51.5,0.0,30.32,South,173,0.0,0.0,0,0.00,,SCT060,0.24,VWS V13.01,2013-04-20 03:43:00,
2013-04-19 20:48:00,51.4,0.0,30.32,South,173,0.0,0.0,0,0.00,,SCT060,0.24,VWS V13.01,2013-04-20 03:48:00,
2013-04-19 20:53:00,51.3,0.0,30.33,ESE,116,0.0,2.0,0,0.00,,SCT060,0.24,VWS V13.01,2013-04-20 03:53:00,
2013-04-19 20:58:00,51.1,0.0,30.32,ESE,116,0.0,2.0,0,0.00,,SCT060,0.24,VWS V13.01,2013-04-20 03:58:00,
2013-04-19 21:01:00,51.0,0.0,30.33,ESE,116,0.0,0.0,0,0.00,,SCT060,0.24,VWS V13.01,2013-04-20 04:01:00,
2013-04-19 21:03:00,50.9,0.0,30.33,ESE,116,0.0,0.0,0,0.00,,SCT060,0.24,VWS V13.01,2013-04-20 04:03:00,
2013-04-19 21:08:00,50.7,0.0,30.33,ESE,116,0.0,1.0,0,0.00,,SCT060,0.24,VWS V13.01,2013-04-20 04:08:00,
2013-04-19 21:13:00,50.4,0.0,30.33,ENE,65,0.0,1.0,0,0.00,,SCT060,0.24,VWS V13.01,2013-04-20 04:13:00,
2013-04-19 21:18:00,50.2,0.0,30.32,ENE,65,0.0,0.0,0,0.00,,SCT060,0.24,VWS V13.01,2013-04-20 04:18:00,
2013-04-19 21:23:00,49.9,0.0,30.33,ENE,65,0.0,1.0,0,0.00,,SCT060,0.24,VWS V13.01,2013-04-20 04:23:00,
2013-04-19 21:28:00,49.7,0.0,30.33,ENE,65,0.0,1.0,0,0.00,,SCT060,0.24,VWS V13.01,2013-04-20 04:28:00,
2013-04-19 21:33:00,49.5,0.0,30.33,ENE,65,0.0,0.0,0,0.00,,SCT060,0.24,VWS V13.01,2013-04-20 04:33:00,
2013-04-19 21:38:00,49.2,0.0,30.33,ENE,65,0.0,0.0,0,0.00,,SCT060,0.24,VWS V13.01,2013-04-20 04:38:00,
2013-04-19 21:43:00,49.0,0.0,30.34,ENE,65,0.0,0.0,0,0.00,,BKN028,0.24,VWS V13.01,2013-04-20 04:43:00,
2013-04-19 21:48:00,48.9,0.0,30.34,ENE,65,0.0,0.0,0,0.00,,BKN028,0.24,VWS V13.01,2013-04-20 04:48:00,
2013-04-19 21:53:00,48.8,0.0,30.34,ENE,65,0.0,0.0,0,0.00,,BKN028,0.24,VWS V13.01,2013-04-20 04:53:00,
2013-04-19 21:58:00,48.8,0.0,30.34,ENE,65,0.0,1.0,0,0.00,,BKN028,0.24,VWS V13.01,2013-04-20 04:58:00,
2013-04-19 22:03:00,48.8,0.0,30.34,ENE,66,0.0,1.0,0,0.00,,BKN028,0.24,VWS V13.01,2013-04-20 05:03:00,
2013-04-19 22:08:00,48.8,0.0,30.34,ENE,66,0.0,1.0,0,0.00,,BKN028,0.24,VWS V13.01,2013-04-20 05:08:00,
2013-04-19 22:13:00,48.8,0.0,30.34,ENE,66,0.0,1.0,0,0.00,,BKN028,0.24,VWS V13.01,2013-04-20 05:13:00,
2013-04-19 22:18:00,48.8,0.0,30.34,ENE,66,0.0,0.0,0,0.00,,BKN028,0.24,VWS V13.01,2013-04-20 05:18:00,
2013-04-19 22:23:00,48.9,0.0,30.34,ENE,66,0.0,0.0,0,0.00,,BKN028,0.24,VWS V13.01,2013-04-20 05:23:00,
2013-04-19 22:28:00,48.9,0.0,30.34,SSW,198,2.0,2.0,0,0.00,,BKN028,0.24,VWS V13.01,2013-04-20 05:28:00,
2013-04-19 22:34:00,49.0,0.0,30.34,SSW,213,2.0,3.0,0,0.00,,BKN028,0.24,VWS V13.01,2013-04-20 05:34:00,
2013-04-19 22:39:00,48.9,0.0,30.35,SSW,213,0.0,3.0,0,0.00,,BKN028,0.24,VWS V13.01,2013-04-20 05:39:00,
2013-04-19 22:44:00,48.8,0.0,30.35,SSW,213,1.0,3.0,0,0.00,,BKN026,0.24,VWS V13.01,2013-04-20 05:44:00,
2013-04-19 22:49:00,48.7,0.0,30.35,SSW,213,0.0,2.0,0,0.00,,OVC044,0.24,VWS V13.01,2013-04-20 05:49:00,
2013-04-19 22:54:00,48.6,0.0,30.35,SSW,213,0.0,2.0,0,0.00,,OVC044,0.24,VWS V13.01,2013-04-20 05:54:00,
2013-04-19 22:59:00,48.5,0.0,30.35,SSW,213,0.0,0.0,0,0.00,,OVC044,0.24,VWS V13.01,2013-04-20 05:59:00,
2013-04-19 23:04:00,48.5,0.0,30.35,SSW,213,0.0,0.0,0,0.00,,OVC044,0.24,VWS V13.01,2013-04-20 06:04:00,
2013-04-19 23:09:00,48.4,0.0,30.35,SSW,213,0.0,0.0,0,0.00,,OVC044,0.24,VWS V13.01,2013-04-20 06:09:00,
2013-04-19 23:14:00,48.4,0.0,30.34,SSW,213,0.0,0.0,0,0.00,,OVC044,0.24,VWS V13.01,2013-04-20 06:14:00,
2013-04-19 23:19:00,48.5,0.0,30.34,SSW,213,0.0,0.0,0,0.00,,OVC044,0.24,VWS V13.01,2013-04-20 06:19:00,
2013-04-19 23:25:00,48.5,0.0,30.34,SSW,213,0.0,0.0,0,0.00,,OVC044,0.24,VWS V13.01,2013-04-20 06:25:00,
2013-04-19 23:30:00,48.5,0.0,30.34,SSW,213,0.0,0.0,0,0.00,,OVC044,0.24,VWS V13.01,2013-04-20 06:30:00,
2013-04-19 23:35:00,48.6,0.0,30.34,SSW,213,0.0,0.0,0,0.00,,OVC044,0.24,VWS V13.01,2013-04-20 06:35:00,
2013-04-19 23:40:00,48.6,0.0,30.35,SSW,213,0.0,1.0,0,0.00,,OVC040,0.24,VWS V13.01,2013-04-20 06:40:00,
2013-04-19 23:45:00,48.7,0.0,30.35,SSW,213,0.0,0.0,0,0.00,,OVC040,0.24,VWS V13.01,2013-04-20 06:45:00,
2013-04-19 23:50:00,48.7,0.0,30.35,SSW,213,0.0,0.0,0,0.00,,OVC040,0.24,VWS V13.01,2013-04-20 06:50:00,
2013-04-19 23:55:00,48.7,0.0,30.35,SSW,213,0.0,0.0,0,0.00,,OVC040,0.24,VWS V13.01,2013-04-20 06:55:00,